Pine Bluffs Muni, Pine Bluffs, WY

1:11 AM MST on December 06, 2019 (GMT -0700)
Pine Bluffs Muni, Pine Bluffs

Weather History for K82V - November, 2019

Change the Weather History Date:

Tuesday, November 19, 2019

  Actual Average (WUND) Record (WUND)
Temperature  
Mean Temperature 43 °F -  
Max Temperature 60 °F - - (-1)
Min Temperature 26 °F - - (-1)
Degree Days  
Heating Degree Days 22    
Moisture  
Dew Point 27 °F    
Average Humidity 62    
Maximum Humidity 87    
Minimum Humidity 23    
Precipitation  
Precipitation 0.00 in - - ()
Sea Level Pressure  
Sea Level Pressure 29.79 in    
Wind  
Wind Speed 5 mph ()    
Max Wind Speed 15 mph    
Max Gust Speed 21 mph    
Visibility 10.0 miles    
Events      
Averages and records for this station are not official NWS values.
T = Trace of Precipitation, MM = Missing Value Source: Averaged Metar Reports

Daily Weather History Graph

Daily Weather History Graph

Search for Another Location

Airport or City:

Astronomy

Nov. 19, 2019 Rise Set
Actual Time 6:48 AM MST 4:34 PM MST
Civil Twilight 6:19 AM MST 5:04 PM MST
Nautical Twilight 5:45 AM MST 5:37 PM MST
Astronomical Twilight 5:12 AM MST 6:10 PM MST
Moon 11:33 PM MST (11/19) 1:00 PM MST (11/19)
Length of Visible Light 10h 45m
Length of Day
9h 45m
Waning Gibbous, 51% of the Moon is Illuminated
Nov 19
Waning Gibbous
Nov 19
Last Quarter
Nov 26
New
Dec 3
First Quarter
Dec 11
Full

Hourly Weather History & Observations

Time (MST) Temp. Windchill Dew Point Humidity Pressure Visibility Wind Dir Wind Speed Gust Speed Precip Events Conditions
12:15 AM 35.6 °F 30.7 °F 28.4 °F 75% 29.93 in 10.0 mi SW 5.8 mph - N/A   Clear
12:35 AM 33.8 °F 29.6 °F 28.4 °F 81% 29.92 in 10.0 mi SSW 4.6 mph - N/A   Clear
12:55 AM 33.8 °F 29.6 °F 28.4 °F 81% 29.92 in 10.0 mi SW 4.6 mph - N/A   Clear
1:15 AM 32.0 °F 25.6 °F 26.6 °F 80% 29.91 in 10.0 mi SW 6.9 mph - N/A   Clear
1:35 AM 32.0 °F 26.4 °F 28.4 °F 87% 29.91 in 10.0 mi SW 5.8 mph - N/A   Clear
1:55 AM 32.0 °F 26.4 °F 28.4 °F 87% 29.90 in 10.0 mi South 5.8 mph - N/A   Clear
2:15 AM 32.0 °F 25.6 °F 26.6 °F 80% 29.90 in 10.0 mi SSW 6.9 mph - N/A   Clear
2:35 AM 32.0 °F 26.4 °F 26.6 °F 80% 29.90 in 10.0 mi South 5.8 mph - N/A   Clear
3:15 AM 32.0 °F 25.6 °F 26.6 °F 80% 29.88 in 10.0 mi SSW 6.9 mph - N/A   Clear
3:35 AM 32.0 °F 25.6 °F 26.6 °F 80% 29.86 in 10.0 mi SSW 6.9 mph - N/A   Clear
3:55 AM 30.2 °F - 24.8 °F 80% 29.87 in 10.0 mi Calm Calm - N/A   Clear
4:15 AM 30.2 °F 25.4 °F 26.6 °F 86% 29.86 in 10.0 mi SW 4.6 mph - N/A   Clear
4:35 AM 28.4 °F - 23.0 °F 80% 29.86 in 10.0 mi Calm Calm - N/A   Clear
4:55 AM 28.4 °F 24.6 °F 24.8 °F 86% 29.86 in 10.0 mi South 3.5 mph - N/A   Clear
5:15 AM 28.4 °F 22.2 °F 23.0 °F 80% 29.86 in 10.0 mi WSW 5.8 mph - N/A   Clear
5:55 AM 26.6 °F 21.2 °F 23.0 °F 86% 29.85 in 10.0 mi South 4.6 mph - N/A   Clear
6:15 AM 28.4 °F 22.2 °F 23.0 °F 80% 29.86 in 10.0 mi SSW 5.8 mph - N/A   Clear
6:35 AM 26.6 °F 19.1 °F 23.0 °F 86% 29.85 in 10.0 mi SSW 6.9 mph - N/A   Clear
6:55 AM 26.6 °F - 23.0 °F 86% 29.84 in 10.0 mi Calm Calm - N/A   Clear
7:15 AM 28.4 °F 23.3 °F 23.0 °F 80% 29.84 in 10.0 mi SW 4.6 mph - N/A   Clear
7:35 AM 28.4 °F - 24.8 °F 86% 29.84 in 10.0 mi Calm Calm - N/A   Clear
7:55 AM 32.0 °F - 28.4 °F 87% 29.86 in 10.0 mi Calm Calm - N/A   Clear
8:15 AM 33.8 °F 30.8 °F 28.4 °F 81% 29.85 in 10.0 mi West 3.5 mph - N/A   Clear
8:35 AM 37.4 °F - 30.2 °F 75% 29.86 in 10.0 mi Calm Calm - N/A   Clear
8:55 AM 37.4 °F 33.8 °F 32.0 °F 81% 29.85 in 10.0 mi South 4.6 mph - N/A   Clear
9:35 AM 48.2 °F - 32.0 °F 54% 29.84 in 10.0 mi SSW 8.1 mph - N/A   Clear
10:15 AM 55.4 °F - 32.0 °F 41% 29.83 in 10.0 mi South 8.1 mph - N/A   Clear
10:35 AM 57.2 °F - 30.2 °F 36% 29.82 in 10.0 mi South 11.5 mph - N/A   Clear
10:55 AM 59.0 °F - 28.4 °F 31% 29.81 in 10.0 mi SSW 10.4 mph - N/A   Clear
11:15 AM 59.0 °F - 28.4 °F 31% 29.80 in 10.0 mi SSW 6.9 mph - N/A   Clear
11:35 AM 60.8 °F - 28.4 °F 29% 29.79 in 10.0 mi South 10.4 mph - N/A   Clear
11:55 AM 59.0 °F - 26.6 °F 29% 29.78 in 10.0 mi South 10.4 mph - N/A   Clear
12:15 PM 60.8 °F - 28.4 °F 29% 29.77 in 10.0 mi South 12.7 mph - N/A   Clear
12:35 PM 60.8 °F - 26.6 °F 27% 29.76 in 10.0 mi SSW 15.0 mph 20.7 mph N/A   Clear
12:55 PM 60.8 °F - 26.6 °F 27% 29.75 in 10.0 mi South 15.0 mph 18.4 mph N/A   Clear
1:15 PM 60.8 °F - 24.8 °F 25% 29.74 in 10.0 mi South 15.0 mph - N/A   Clear
1:35 PM 60.8 °F - 23.0 °F 23% 29.73 in 10.0 mi South 15.0 mph 20.7 mph N/A   Clear
1:55 PM 60.8 °F - 23.0 °F 23% 29.73 in 10.0 mi South 13.8 mph - N/A   Clear
2:15 PM 60.8 °F - 23.0 °F 23% 29.72 in 10.0 mi South 12.7 mph - N/A   Clear
2:35 PM 60.8 °F - 24.8 °F 25% 29.72 in 10.0 mi South 9.2 mph - N/A   Clear
2:55 PM 60.8 °F - 24.8 °F 25% 29.72 in 10.0 mi South 6.9 mph - N/A   Clear
3:15 PM 59.0 °F - 24.8 °F 27% 29.72 in 10.0 mi South 6.9 mph - N/A   Clear
3:35 PM 55.4 °F - 24.8 °F 31% 29.72 in 10.0 mi South 8.1 mph - N/A   Clear
3:55 PM 51.8 °F - 26.6 °F 38% 29.72 in 10.0 mi South 4.6 mph - N/A   Clear
4:15 PM 50.0 °F - 26.6 °F 40% 29.71 in 10.0 mi South 8.1 mph - N/A   Clear
4:35 PM 48.2 °F - 26.6 °F 43% 29.70 in 10.0 mi South 9.2 mph - N/A   Clear
4:55 PM 46.4 °F 42.4 °F 26.6 °F 46% 29.70 in 10.0 mi SSW 8.1 mph - N/A   Clear
5:15 PM 46.4 °F 41.9 °F 28.4 °F 50% 29.72 in 10.0 mi SSW 9.2 mph - N/A   Clear
5:35 PM 42.8 °F 40.1 °F 28.4 °F 57% 29.72 in 10.0 mi SSW 4.6 mph - N/A   Clear
5:55 PM 46.4 °F 43.5 °F 28.4 °F 50% 29.73 in 10.0 mi SW 5.8 mph - N/A   Clear
6:15 PM 44.6 °F 43.1 °F 28.4 °F 53% 29.73 in 10.0 mi SW 3.5 mph - N/A   Clear
6:35 PM 41.0 °F - 28.4 °F 61% 29.73 in 10.0 mi Calm Calm - N/A   Clear
6:55 PM 42.8 °F 39.3 °F 28.4 °F 57% 29.74 in 10.0 mi SW 5.8 mph - N/A   Clear
7:15 PM 42.8 °F 39.3 °F 28.4 °F 57% 29.73 in 10.0 mi SSW 5.8 mph - N/A   Clear
7:35 PM 37.4 °F 34.9 °F 26.6 °F 65% 29.73 in 10.0 mi WNW 3.5 mph - N/A   Clear
7:55 PM 35.6 °F 32.8 °F 28.4 °F 75% 29.73 in 10.0 mi West 3.5 mph - N/A   Clear
8:15 PM 33.8 °F 29.6 °F 26.6 °F 75% 29.73 in 10.0 mi WNW 4.6 mph - N/A   Clear
8:35 PM 33.8 °F - 26.6 °F 75% 29.73 in 10.0 mi Calm Calm - N/A   Clear
8:55 PM 33.8 °F 28.6 °F 26.6 °F 75% 29.73 in 10.0 mi West 5.8 mph - N/A   Clear
9:15 PM 33.8 °F - 26.6 °F 75% 29.72 in 10.0 mi Calm Calm - N/A   Clear
9:35 PM 33.8 °F - 28.4 °F 81% 29.72 in 10.0 mi Calm Calm - N/A   Clear
9:55 PM 33.8 °F - 28.4 °F 81% 29.71 in 10.0 mi Calm Calm - N/A   Clear
10:15 PM 33.8 °F - 28.4 °F 81% 29.70 in 10.0 mi Calm Calm - N/A   Clear
10:35 PM 33.8 °F 30.8 °F 28.4 °F 81% 29.70 in 10.0 mi WNW 3.5 mph - N/A   Clear
10:55 PM 33.8 °F - 28.4 °F 81% 29.69 in 10.0 mi Calm Calm - N/A   Clear
11:15 PM 32.0 °F - 28.4 °F 87% 29.70 in 10.0 mi Calm Calm - N/A   Clear
11:35 PM 32.0 °F - 26.6 °F 80% 29.69 in 10.0 mi Calm Calm - N/A   Clear
11:55 PM 30.2 °F 24.3 °F 26.6 °F 86% 29.69 in 10.0 mi West 5.8 mph - N/A   Clear